Notices

What's New in latest Release from April 7th, 2021:

- Updated Glossary, including Speed of Maximum Gust, and Total Hourly Precipitation

- Updated national and regional climate services offices contacts and prices information

- Addition of station inventory lists for 1981-2010, 1971-2000, and 1961-1990 Normals.

If you haven't already, please take our survey and provide feedback about our website: https://eccc.sondage-survey.ca/f/LanguageSelection.aspx?s=442ca660-fcf1-47c0-95a9-59707d6fd709

Hourly Data Report for April 10, 2017

KUGAARUK CLIMATE
NUNAVUT

68°32'15.060" N
89°47'47.020" W
15.80 m
2303094
71407
NBB

Download Data

Hourly Data (April 2017)
Hourly Data Report for April 10, 2017
TIME
LST
Temp Definition
°C
Dew Point Definition
°C
Rel Hum Definition
%
Precip. Amount Definition
mm

Wind Dir Definition
10's deg

Wind Spd Definition
km/h
Visibility Definition
km
Stn Press Definition
kPa
Hmdx Definition


Wind Chill Definition


Weather Definition


00:00 -30.3 -33.7 72 0.0 4 3   100.10   -34 LegendNANA
01:00 -29.9 -33.4 72 0.0 0 1   100.11   -31 LegendNANA
02:00 -28.3 -31.4 75 0.0 25 5   100.12   -34 LegendNANA
03:00 -27.7 -30.8 75 0.0 26 10   100.13   -36 LegendNANA
04:00 -26.8 -29.8 75 0.0 25 12   100.14   -36 LegendNANA
05:00 -24.0 -26.6 79 0.0 25 12   100.12   -33 LegendNANA
06:00 -22.9 -25.5 79 0.0 27 18   100.12   -34 LegendNANA
07:00 -22.7 -25.5 78 0.0 25 23   100.08   -35 LegendNANA
08:00 -21.7 -24.4 79 0.0 24 27   100.02   -34 LegendNANA
09:00 -20.0 -22.7 79 0.0 24 26   99.97   -32 LegendNANA
10:00 -18.3 -21.3 77 0.0 25 22   99.97   -29 LegendNANA
11:00 -17.0 -20.2 76 0.0 24 17   99.94   -26 LegendNANA
12:00 -14.9 -17.8 78 0.0 25 15   99.90   -23 LegendNANA
13:00 -12.9 -16.4 75 0.0 25 7   99.87   -17 LegendNANA
14:00 -11.6 -15.2 74 0.0 31 2   99.86   -13 LegendNANA
15:00 -11.1 -14.7 75 0.0 16 1   99.84   -12 LegendNANA
16:00 -10.6 -13.2 81 0.2 34 9   99.85   -16 LegendNANA
17:00 -9.3 -11.3 85 0.2 36 14   99.86   -16 LegendNANA
18:00 -8.9 -10.3 90 0.0 2 29   99.83   -18 LegendNANA
19:00 -8.3 -9.6 90 0.2 2 30   99.85   -17 LegendNANA
20:00 -7.8 -9.0 91 0.0 2 29   99.90   -17 LegendNANA
21:00 -7.7 -8.8 91 0.0 1 34   99.96   -17 LegendNANA
22:00 -7.5 -8.6 92 0.2 1 40   100.02   -17 LegendNANA
23:00 -8.7 -9.8 91 0.0 1 46   100.10   -20 LegendNANA

Notes on Data Quality.

Legend

  • E = Estimated
  • M = Missing
  • NA = Not Available*
  • [empty] = Indicates an unobserved value
Date modified: